GFSFLT2_sfc_temp_168.txt.gz
Temp
56 55 55 56 57 56 54 55 56 50 51 51 51 51 51 52 52 52 53 54 55 56 56 57 57 56 57
54 52 50 55 54 53 54 54 54 49 49 50 51 50 50 50 50 50 50 51 52 53 53 53 53 53 54
50 53 52 54 53 54 52 52 52 45 47 48 50 50 49 49 48 48 49 50 50 49 49 49 50 50 51
48 49 50 51 48 48 49 49 49 49 44 45 46 47 46 45 45 46 47 49 49 48 48 48 48 48 49
45 45 45 46 46 49 45 47 47 46 47 46 45 46 47 44 44 45 47 47 47 46 46 46 45 46 46
46 46 48 49 48 46 46 45 46 46 45 47 46 47 48 47 44 46 47 46 44 44 44 44 44 45 45
47 48 47 48 47 46 45 45 46 46 45 45 46 45 48 46 42 45 46 45 43 42 42 43 43 44 44
47 48 50 49 47 47 46 46 46 44 44 40 46 44 47 47 42 43 44 44 42 41 42 42 42 42 42
47 47 46 44 45 45 40 39 41 43 42 42 43 42 42 44 46 42 43 43 42 41 41 41 41 41 42
46 45 44 45 43 43 44 37 40 38 42 38 38 38 36 39 41 43 43 40 40 41 40 40 40 41 41
46 47 46 45 44 43 43 40 37 37 41 39 33 35 33 35 37 38 40 40 41 41 39 39 39 39 38
43 43 42 42 41 42 41 40 41 37 40 37 33 34 33 33 35 36 36 38 38 36 37 38 38 39 39
40 40 41 41 38 37 36 36 33 35 36 33 33 32 32 32 34 34 33 36 35 34 35 35 35 37 34
38 42 40 36 35 36 33 32 32 33 32 32 32 32 31 32 32 32 34 31 34 34 34 34 36 37 36
37 36 35 35 34 35 33 32 31 32 31 31 31 32 32 31 30 32 33 32 32 32 31 30 34 36 36
35 34 33 33 33 32 32 32 31 32 32 31 30 29 30 32 33 31 31 31 32 31 31 28 30 36 38
34 34 33 33 33 32 32 31 31 32 31 32 29 29 27 28 31 34 30 31 31 29 30 30 29 32 35

GFSFLT2_sfc_temp_171.txt.gz
Temp
54 55 54 53 55 55 53 52 52 50 51 51 51 51 51 51 51 52 53 54 56 57 57 57 57 57 58
51 51 52 52 54 51 53 54 50 50 49 50 51 50 50 50 50 50 51 52 52 52 53 54 54 54 55
47 50 51 51 50 50 50 49 52 46 48 48 50 50 49 49 48 48 49 50 50 49 49 50 50 51 52
47 46 47 48 47 43 43 46 45 49 47 45 46 47 47 46 46 46 47 49 49 48 48 48 48 48 49
42 42 42 42 42 44 40 42 44 43 41 42 41 42 43 45 45 45 46 47 47 46 46 46 46 46 46
41 40 42 43 44 41 40 38 38 41 39 40 41 40 42 41 47 45 47 46 45 44 44 44 45 45 45
44 44 43 44 44 40 40 38 38 38 38 37 39 38 42 45 45 45 47 46 44 43 43 43 44 44 44
45 46 46 46 44 42 39 38 40 39 38 32 38 36 40 40 46 45 47 45 44 42 42 42 43 43 43
48 48 48 47 44 40 35 34 34 36 36 35 35 34 35 35 39 45 45 44 44 43 42 42 42 42 39
42 43 45 44 45 40 38 34 32 32 36 32 31 31 29 32 34 37 38 43 43 43 42 41 41 35 35
42 42 41 41 40 40 39 35 33 32 36 33 31 30 28 28 31 32 35 35 36 37 42 41 41 39 32
39 38 37 36 36 37 37 37 36 34 36 33 31 32 28 26 27 30 30 31 32 31 32 37 39 40 40
37 36 36 35 35 34 33 33 31 33 34 32 32 29 28 27 27 28 27 30 31 30 31 30 30 31 30
36 37 35 34 34 34 33 31 29 30 31 32 31 30 27 29 28 27 29 26 29 30 30 30 33 33 32
35 35 34 34 33 34 33 32 29 28 30 30 31 30 29 26 26 30 29 29 31 29 29 28 31 32 32
34 34 34 33 33 32 32 32 30 31 31 30 28 27 27 29 33 29 27 27 29 28 27 23 27 32 31
33 33 33 33 33 32 32 31 30 31 31 31 29 27 25 24 28 35 28 29 28 26 27 26 26 30 31

GFSFLT2_sfc_temp_174.txt.gz
Temp
45 47 47 47 48 49 52 46 45 51 51 51 51 51 51 51 51 52 54 55 56 57 57 57 57 58 58
43 43 45 45 45 45 49 50 46 50 50 50 51 51 50 50 50 50 51 51 52 52 53 54 54 55 56
42 43 43 44 43 44 44 43 47 49 50 50 50 50 50 49 48 48 50 50 50 49 50 50 51 52 53
40 40 40 42 40 39 38 40 40 46 48 47 47 48 48 47 47 46 47 49 49 48 48 47 48 49 49
37 37 37 37 37 38 36 36 37 38 36 37 37 37 38 46 45 46 47 48 47 46 46 46 46 46 47
36 35 36 37 38 36 35 33 33 36 34 34 36 35 37 37 45 47 47 47 46 45 44 44 45 45 45
38 37 37 39 39 36 34 33 33 35 34 32 33 33 36 42 47 46 46 47 45 44 43 43 44 44 44
43 43 40 41 39 38 36 34 34 35 34 29 31 31 34 35 47 46 46 46 46 44 43 43 43 43 43
46 46 46 48 43 36 32 29 29 31 31 32 31 31 31 31 34 46 45 47 45 45 43 43 43 43 38
39 41 44 42 46 36 33 29 28 27 32 29 27 27 25 27 30 33 35 45 45 44 44 44 43 35 33
37 36 36 36 36 36 34 32 28 29 33 29 26 23 21 23 26 27 31 33 33 36 42 43 42 40 31
36 37 36 36 34 34 34 33 33 34 33 30 21 23 21 19 24 27 26 28 29 27 28 37 40 41 41
36 36 35 37 35 34 31 31 29 32 33 28 24 26 21 18 21 23 24 28 27 26 26 27 28 29 27
35 35 34 33 33 34 33 31 28 22 28 31 29 24 20 22 21 21 25 23 25 26 25 27 31 31 30
33 34 34 34 33 33 33 31 28 20 27 29 28 28 25 21 20 27 27 25 25 26 24 24 29 30 30
34 33 33 33 33 32 33 32 30 28 26 29 28 27 26 26 31 26 23 24 25 25 25 23 26 29 29
33 33 33 33 33 32 32 32 29 29 30 29 27 25 21 20 27 35 27 26 25 25 26 25 24 29 29

GFSFLT2_sfc_temp_177.txt.gz
Temp
44 45 45 45 46 46 47 45 45 52 52 52 52 52 52 51 51 52 54 54 55 56 57 58 58 59 59
44 42 43 44 44 43 46 48 44 49 52 51 51 51 51 50 49 50 51 51 51 52 53 54 55 56 57
44 41 41 42 42 42 42 41 45 48 52 51 51 51 50 49 48 48 49 50 49 49 50 51 52 53 54
41 39 39 40 38 37 37 37 39 44 47 48 47 48 50 49 48 47 47 48 49 48 48 47 48 49 50
37 36 36 36 36 36 35 35 36 36 35 36 37 37 38 46 45 46 47 48 48 46 46 46 46 47 47
36 35 35 36 36 35 33 33 33 35 33 34 35 34 35 36 44 46 47 47 47 45 45 45 45 45 45
39 37 36 37 37 34 33 33 33 35 34 32 33 33 34 39 46 47 47 47 47 45 44 44 44 44 44
41 42 39 39 38 38 36 33 33 33 33 29 30 31 32 33 44 47 47 47 47 45 44 43 43 43 43
46 46 46 46 42 34 32 30 30 31 31 32 31 31 30 30 33 44 46 46 47 46 45 44 43 43 38
38 39 43 42 47 37 34 29 27 28 32 30 26 28 26 27 29 32 33 45 46 47 45 45 44 35 31
36 36 35 35 35 36 33 32 26 31 33 28 27 22 20 22 25 26 30 32 33 36 44 44 44 41 31
35 35 35 35 36 36 36 33 33 33 33 29 20 22 16 17 23 25 24 27 29 26 27 36 41 42 42
35 35 35 36 35 34 33 34 33 33 34 31 25 27 18 17 20 22 23 25 24 23 23 26 27 29 27
32 34 34 33 33 34 33 32 32 30 31 31 28 23 17 21 21 19 22 22 21 22 24 26 29 30 29
33 33 33 33 34 33 33 32 31 28 28 28 30 28 24 23 19 24 25 24 22 22 24 22 29 31 30
33 33 33 33 33 32 32 32 31 31 29 27 28 27 25 26 31 26 22 23 21 23 24 20 27 31 29
33 33 33 33 33 33 32 32 31 31 29 26 27 25 22 21 25 35 20 20 22 22 24 24 23 30 28

GFSFLT2_sfc_temp_183.txt.gz
Temp
45 44 43 45 46 45 45 44 43 50 53 54 54 52 52 52 51 51 52 52 53 55 56 58 59 60 60
45 44 42 43 43 42 45 46 42 48 51 53 53 52 52 51 50 49 50 50 50 51 53 55 56 57 58
44 42 41 40 40 40 41 40 43 47 50 51 52 53 52 51 50 49 48 49 49 49 49 50 52 53 54
42 40 39 39 37 37 37 36 38 42 45 46 48 48 50 51 51 49 47 48 49 48 47 48 48 50 51
41 38 36 35 36 36 34 34 35 35 34 35 35 36 37 43 46 48 47 48 48 48 47 47 47 47 48
41 40 42 39 35 35 33 33 34 33 33 34 34 34 35 34 43 46 47 48 48 48 46 46 45 46 46
40 38 36 36 35 33 32 33 32 34 33 32 32 33 34 38 45 46 47 47 48 48 46 45 45 45 45
39 40 38 38 37 37 34 32 32 32 32 29 30 31 33 33 42 46 47 47 47 48 46 45 44 44 44
45 45 46 46 42 33 31 29 30 30 30 31 29 30 30 30 32 42 46 47 47 47 47 45 44 44 39
35 37 39 38 44 38 33 29 30 32 30 29 26 26 26 26 29 31 33 43 47 47 47 47 46 40 36
38 36 34 34 34 37 37 36 33 34 35 30 21 22 20 24 26 26 29 31 33 35 43 46 46 43 38
35 35 35 36 36 36 36 36 36 36 37 34 32 26 19 19 24 26 24 26 28 27 28 36 41 43 43
34 34 33 34 34 34 33 35 33 34 35 33 33 29 27 25 22 22 25 25 24 24 22 26 27 28 26
34 34 33 33 33 33 33 33 32 33 33 33 33 31 29 28 27 21 23 25 21 22 24 26 29 28 28
33 33 33 33 33 33 33 33 32 32 31 31 32 31 30 27 27 26 26 23 22 21 23 22 26 28 28
33 33 33 32 33 32 33 32 32 32 32 31 29 27 26 27 31 26 24 24 21 21 22 17 21 26 28
33 33 33 32 33 33 33 32 32 32 32 31 28 26 20 17 26 35 24 23 19 19 22 24 18 24 28

GFSFLT2_sfc_temp_186.txt.gz
Temp
44 44 42 44 45 45 45 43 43 51 53 53 53 54 53 52 51 51 51 51 52 54 56 58 59 59 60
46 42 42 42 42 42 44 45 42 47 51 53 53 53 53 52 51 50 49 50 50 50 52 54 56 57 58
44 42 41 40 40 40 40 40 43 47 50 51 52 53 53 52 51 50 49 49 49 49 49 50 51 53 54
42 43 40 39 38 37 37 36 37 42 45 46 48 49 52 52 51 49 48 48 49 48 48 48 49 50 51
39 40 38 38 39 40 35 34 35 35 34 35 35 36 38 46 46 48 48 48 49 48 48 47 47 47 48
39 39 39 37 40 39 36 34 36 32 32 34 33 34 35 35 43 46 48 48 48 48 47 47 46 46 46
40 41 39 39 39 36 32 33 34 35 35 32 32 33 34 37 44 46 47 48 48 48 47 46 46 45 45
37 40 41 42 40 40 38 36 34 32 32 29 30 31 32 33 42 45 47 47 48 48 47 46 45 45 44
44 45 45 46 44 36 34 33 33 33 30 31 29 30 30 30 32 41 45 47 48 48 48 46 45 44 41
37 39 39 37 42 39 37 34 33 33 33 30 27 27 26 26 29 30 32 43 47 47 47 47 46 41 37
38 38 37 37 36 36 37 36 33 34 36 34 29 28 26 23 25 25 29 31 33 35 45 47 47 44 38
35 35 35 35 35 36 36 36 37 36 37 35 33 32 30 27 28 26 23 25 28 26 27 36 41 46 46
34 35 34 35 34 34 34 35 33 34 36 34 33 32 31 31 30 29 30 28 26 23 23 25 27 30 28
34 33 33 33 33 33 33 33 32 33 33 33 33 33 30 31 31 28 27 28 26 27 27 26 29 29 29
33 33 33 33 33 33 33 33 32 32 32 32 32 32 32 31 28 28 26 25 26 26 24 24 27 29 29
33 33 33 32 32 32 33 32 32 32 32 32 29 28 28 29 33 28 24 23 24 26 23 20 24 29 28
30 32 33 32 33 32 32 32 32 32 33 32 29 27 22 20 26 35 24 23 21 20 23 23 22 26 28